Regional Weather Roundup
Issued by NWS Goodland, KS

Home | Current Version | Previous Version | Text Only | Print | Product List | Glossary Off
Versions: 1 2 3 4 5 6 7 8 9 10 11 12 13 14 15 16 17 18 19 20 21 22 23 24 25 26 27 28 29 30 31 32 33 34 35 36 37 38 39 40 41 42 43 44 45 46 47 48 49 50

000
ASUS43 KGLD 281808
RWRGLD

GOODLAND FORECAST AREA HOURLY WEATHER ROUNDUP
NATIONAL WEATHER SERVICE GOODLAND KS
1200 PM MDT THU APR 28 2016

...OFFICIAL OBSERVATIONS...

CITY           SKY/WX    TMP DP  RH WIND       PRES   REMARKS
GOODLAND KS    CLOUDY    44  29  55 VRB7      30.02R
HILL CITY KS   CLOUDY    51  35  54 N9        30.02S
IMPERIAL NEB   SUNNY     47  31  53 N10G17    30.01S
MCCOOK NEB     PTSUNNY   51  35  54 N8        30.00F
AKRON CO       LGT SNOW  34  32  92 NE5       30.00F VSB 1
BURLINGTON CO  CLOUDY    43  30  60 N10       30.01S
LIMON CO       CLOUDY    36  32  85 E7        29.99S
$$

...UNOFFICIAL OBSERVATIONS...

CITY           SKY/WX    TMP DP  RH WIND       PRES   REMARKS
COLBY KS       CLOUDY    46  37  71 N7        30.04R
GOVE KS          N/A     48  32  54 MISG        N/A
LENORA KS        N/A     48  32  54 MISG        N/A
NORTON KS      MOSUNNY   50  34  53 N9        29.99F
SHARON SPRINGS   N/A     44  34  67 NE9         N/A
TRIBUNE KS     CLOUDY    46  32  57 N10G17    30.02F
KIT CARSON CO    N/A     41  32  69 MISG        N/A
YUMA CO          N/A     40  31  70 NE6G14      N/A
$$




USA.gov is the U.S. government's official web portal to all federal, state and local government web resources and services.